FW4479 Weather Reports


time (UTC)temp
C
wind
direction
speed
KPH
gust
KPH
rain 1hr
cm
rain 24hr
cm
rain mn
cm
humidity
%
barometer
mb
20260504215002 22 266 6.4 12.9 0.00 0.00 0.00 21 1003.2
20260504214503 22 250 4.8 17.7 0.00 0.00 0.00 24 1003.3
20260504214003 22 278 9.7 25.7 0.00 0.00 0.00 20 1003.4
20260504213501 22 242 6.4 25.7 0.00 0.00 0.00 22 1003.5
20260504213001 22 235 8.0 19.3 0.00 0.00 0.00 25 1003.6
20260504212601 22 234 3.2 17.7 0.00 0.00 0.00 21 1003.6
20260504212059 22 223 8.0 17.7 0.00 0.00 0.00 23 1003.5
20260504211559 22 276 6.4 16.1 0.00 0.00 0.00 21 1003.5
20260504211100 22 280 8.0 17.7 0.00 0.00 0.00 23 1003.6
20260504210559 22 241 8.0 20.9 0.00 0.00 0.00 21 1003.6
20260504210106 22 282 11.3 20.9 0.00 0.00 0.00 22 1003.6
20260504205557 22 219 9.7 22.5 0.00 0.00 0.00 24 1003.5
20260504205100 22 264 12.9 20.9 0.00 0.00 0.00 22 1003.6
20260504204613 22 239 12.9 20.9 0.00 0.00 0.00 23 1003.6
20260504204055 22 257 11.3 19.3 0.00 0.00 0.00 22 1003.7
20260504203554 22 258 6.4 16.1 0.00 0.00 0.00 23 1003.8
20260504203124 22 266 8.0 17.7 0.00 0.00 0.00 25 1003.9
20260504202554 22 256 11.3 17.7 0.00 0.00 0.00 25 1003.9
20260504202053 22 239 8.0 24.1 0.00 0.00 0.00 26 1004.0
20260504201552 22 246 9.7 24.1 0.00 0.00 0.00 27 1004.1
20260504201052 22 251 8.0 22.5 0.00 0.00 0.00 29 1004.2
20260504200552 22 281 9.7 22.5 0.00 0.00 0.00 25 1004.1
20260504200051 22 259 9.7 22.5 0.00 0.00 0.00 26 1004.4
20260504195550 21 256 11.3 27.4 0.00 0.00 0.00 24 1004.4
20260504195052 21 286 12.9 27.4 0.00 0.00 0.00 23 1004.5
20260504194547 21 285 11.3 24.1 0.00 0.00 0.00 29 1004.5
20260504194046 21 265 12.9 38.6 0.00 0.00 0.00 30 1004.7
20260504193546 21 238 16.1 38.6 0.00 0.00 0.00 29 1004.8
20260504193045 21 250 8.0 22.5 0.00 0.00 0.00 30 1004.7
20260504192546 21 295 11.3 25.7 0.00 0.00 0.00 29 1004.9
20260504192043 21 236 14.5 25.7 0.00 0.00 0.00 30 1005.0
20260504191542 21 318 14.5 24.1 0.00 0.00 0.00 29 1005.0
20260504191042 21 221 14.5 25.7 0.00 0.00 0.00 30 1005.2
20260504190541 21 239 14.5 25.7 0.00 0.00 0.00 29 1005.3
20260504190039 21 245 12.9 25.7 0.00 0.00 0.00 31 1005.2
20260504185539 21 274 14.5 27.4 0.00 0.00 0.00 30 1005.4
20260504185040 21 241 16.1 27.4 0.00 0.00 0.00 29 1005.4
20260504184538 21 282 14.5 27.4 0.00 0.00 0.00 30 1005.4
20260504184037 21 245 14.5 27.4 0.00 0.00 0.00 29 1005.5
20260504183536 21 259 11.3 27.4 0.00 0.00 0.00 32 1005.6
20260504183036 20 264 14.5 27.4 0.00 0.00 0.00 30 1005.7
20260504182535 20 233 12.9 27.4 0.00 0.00 0.00 31 1005.7
20260504182034 21 255 9.7 24.1 0.00 0.00 0.00 33 1005.6
20260504181533 20 219 12.9 24.1 0.00 0.00 0.00 31 1005.7
20260504181033 20 264 11.3 22.5 0.00 0.00 0.00 31 1005.8
20260504180533 20 247 9.7 22.5 0.00 0.00 0.00 33 1005.8
20260504180032 20 279 12.9 24.1 0.00 0.00 0.00 33 1005.8
20260504175531 20 226 14.5 24.1 0.00 0.00 0.00 33 1006.0
20260504175031 20 266 9.7 24.1 0.00 0.00 0.00 34 1005.9
20260504174533 20 303 12.9 24.1 0.00 0.00 0.00 35 1005.9
20260504174030 20 295 9.7 33.8 0.00 0.00 0.00 35 1006.0
20260504173529 20 265 17.7 38.6 0.00 0.00 0.00 34 1006.1
20260504173029 20 217 22.5 38.6 0.00 0.00 0.00 32 1006.0
20260504172527 20 241 16.1 35.4 0.00 0.00 0.00 33 1006.0
20260504172026 19 271 16.1 29.0 0.00 0.00 0.00 34 1006.1
20260504171526 19 243 14.5 32.2 0.00 0.00 0.00 35 1006.0
20260504171027 19 231 19.3 32.2 0.00 0.00 0.00 36 1006.1
20260504170524 19 301 14.5 29.0 0.00 0.00 0.00 36 1006.0
20260504151003 16 257 12.9 29.0 0.00 0.00 0.00 39 1007.1
20260504150503 16 243 11.3 27.4 0.00 0.00 0.00 38 1007.1
20260504141054 15 252 12.9 25.7 0.00 0.00 0.00 39 1007.3
20260504140552 15 241 16.1 25.7 0.00 0.00 0.00 39 1007.3
20260504130543 13 207 11.3 29.0 0.00 0.00 0.00 41 1007.6
20260504110524 10 243 9.7 29.0 0.00 0.00 0.00 42 1007.8
20260504100518 10 218 8.0 25.7 0.00 0.00 0.00 41 1007.3
20260504082005 10 211 6.4 16.1 0.00 0.00 0.00 40 1008.4
20260504081604 10 243 9.7 16.1 0.00 0.00 0.00 40 1008.4
20260504081002 10 244 6.4 22.5 0.00 0.00 0.00 40 1008.5
20260504080502 10 248 9.7 22.5 0.00 0.00 0.00 40 1008.5
20260504050535 10 212 3.2 16.1 0.00 0.00 0.00 39 1009.4
20260504045532 10 234 4.8 11.3 0.00 0.00 0.00 40 1009.6
20260504045032 10 214 4.8 14.5 0.00 0.00 0.00 39 1009.7
20260504044531 10 236 6.4 14.5 0.00 0.00 0.00 39 1009.6
20260504044033 11 251 6.4 12.9 0.00 0.00 0.00 39 1009.6
20260504043530 10 248 4.8 16.1 0.00 0.00 0.00 39 1009.6
20260504043029 11 240 6.4 16.1 0.00 0.00 0.00 39 1009.6
20260504042529 11 240 4.8 11.3 0.00 0.00 0.00 39 1009.7
20260504042027 11 250 4.8 11.3 0.00 0.00 0.00 39 1009.6
20260504041538 11 245 4.8 11.3 0.00 0.00 0.00 39 1009.7
20260504041025 11 235 4.8 12.9 0.00 0.00 0.00 39 1009.7
20260504040524 11 221 4.8 14.5 0.00 0.00 0.00 39 1009.7
20260504040024 11 228 6.4 14.5 0.00 0.00 0.00 39 1009.8
20260504035523 11 240 8.0 19.3 0.00 0.00 0.00 39 1009.8
20260504035023 11 236 11.3 19.3 0.00 0.00 0.00 38 1009.7
20260504034523 11 234 8.0 17.7 0.00 0.00 0.00 39 1009.7
20260504034021 11 242 6.4 25.7 0.00 0.00 0.00 39 1009.7
20260504033521 11 241 12.9 25.7 0.00 0.00 0.00 39 1009.6
20260504033021 11 257 8.0 19.3 0.00 0.00 0.00 40 1009.7
20260504032522 11 250 9.7 19.3 0.00 0.00 0.00 40 1009.8
20260504032024 11 259 8.0 20.9 0.00 0.00 0.00 40 1009.7
20260504031522 11 190 6.4 16.1 0.00 0.00 0.00 39 1009.8
20260504031021 11 277 8.0 19.3 0.00 0.00 0.00 39 1009.7
20260504030521 11 216 4.8 19.3 0.00 0.00 0.00 39 1009.7
20260504030021 11 245 8.0 20.9 0.00 0.00 0.00 39 1009.7
20260504025520 11 233 11.3 20.9 0.00 0.00 0.00 39 1009.7
20260504025020 11 242 9.7 24.1 0.00 0.00 0.00 39 1009.7
20260504024520 11 239 12.9 24.1 0.00 0.00 0.00 39 1009.7
20260504024020 11 264 14.5 24.1 0.00 0.00 0.00 39 1009.8
20260504023519 11 270 14.5 25.7 0.00 0.00 0.00 39 1009.9
20260504023020 12 233 14.5 32.2 0.00 0.00 0.00 38 1010.0
20260504022522 12 276 14.5 35.4 0.00 0.00 0.00 38 1009.9
20260504022018 12 245 17.7 30.6 0.00 0.00 0.00 38 1010.0
20260504021518 12 270 12.9 29.0 0.00 0.00 0.00 38 1010.1
20260504021018 12 233 16.1 37.0 0.00 0.00 0.00 37 1010.1
20260504020518 12 248 12.9 33.8 0.00 0.00 0.00 38 1010.1
20260504020031 12 265 11.3 33.8 0.00 0.00 0.00 37 1010.1
20260504015518 11 269 11.3 17.7 0.00 0.00 0.00 38 1010.2
20260504015018 11 271 8.0 20.9 0.00 0.00 0.00 38 1010.2
20260504014521 11 295 8.0 22.5 0.00 0.00 0.00 39 1010.1
20260504014019 11 259 9.7 20.9 0.00 0.00 0.00 38 1010.2
20260504013517 11 255 11.3 24.1 0.00 0.00 0.00 38 1010.0
20260504013017 11 284 14.5 24.1 0.00 0.00 0.00 38 1010.0
20260504012517 11 255 14.5 35.4 0.00 0.00 0.00 39 1010.1
20260504012118 11 285 11.3 35.4 0.00 0.00 0.00 39 1010.2
20260504011517 11 248 17.7 32.2 0.00 0.00 0.00 38 1010.2
20260504011016 11 268 14.5 38.6 0.00 0.00 0.00 38 1010.3
20260504010516 11 219 16.1 38.6 0.00 0.00 0.00 39 1010.2
20260504010016 11 278 11.3 24.1 0.00 0.00 0.00 40 1010.3
20260504005515 11 300 12.9 30.6 0.00 0.00 0.00 40 1010.3
20260504005015 11 283 12.9 33.8 0.00 0.00 0.00 41 1010.4
20260504004516 11 269 16.1 35.4 0.00 0.00 0.00 40 1010.5
20260504004014 11 278 22.5 41.8 0.00 0.00 0.00 40 1010.5
20260504003514 11 274 20.9 41.8 0.00 0.00 0.00 37 1010.5
20260504003014 11 289 12.9 24.1 0.00 0.00 0.00 36 1010.4
20260504002514 11 276 16.1 32.2 0.00 0.00 0.00 36 1010.3
20260504002015 11 266 12.9 29.0 0.00 0.00 0.00 35 1010.2
20260504001522 11 285 12.9 32.2 0.00 0.00 0.00 35 1010.1
20260504001014 11 239 11.3 29.0 0.00 0.00 0.00 36 1010.0
20260504000515 11 289 14.5 29.0 0.00 0.00 0.00 35 1010.1
20260504000012 11 259 9.7 33.8 0.00 0.00 0.00 36 1010.1
20260503235512 11 288 16.1 33.8 0.00 0.00 0.00 36 1010.2
20260503235012 11 269 16.1 40.2 0.00 0.00 0.00 36 1010.2
20260503234512 11 317 19.3 40.2 0.00 0.00 0.00 36 1010.3
20260503234013 11 261 14.5 37.0 0.00 0.00 0.00 36 1010.5
20260503233512 12 262 16.1 37.0 0.00 0.00 0.00 35 1010.3
20260503233018 12 250 16.1 43.5 0.00 0.00 0.00 35 1010.2
20260503232514 12 297 20.9 43.5 0.00 0.00 0.00 34 1010.1
20260503232011 12 290 12.9 25.7 0.00 0.00 0.00 37 1010.1
20260503231512 12 275 11.3 37.0 0.00 0.00 0.00 36 1010.0
20260503231011 12 279 17.7 41.8 0.00 0.00 0.00 34 1009.9
20260503230513 12 267 17.7 41.8 0.00 0.00 0.00 33 1010.0
20260503230025 12 273 12.9 37.0 0.00 0.00 0.00 32 1009.9
20260503225509 12 242 14.5 30.6 0.00 0.00 0.00 31 1009.7
20260503225009 12 271 17.7 30.6 0.00 0.00 0.00 30 1009.8
20260503224509 12 262 9.7 25.7 0.00 0.00 0.00 30 1009.8
20260503224011 12 274 12.9 33.8 0.00 0.00 0.00 31 1009.8
20260503223511 12 299 16.1 33.8 0.00 0.00 0.00 30 1009.8
20260503223009 12 266 17.7 29.0 0.00 0.00 0.00 31 1009.9
20260503222509 12 311 12.9 29.0 0.00 0.00 0.00 31 1009.9
20260503222007 12 285 12.9 29.0 0.00 0.00 0.00 31 1009.8
20260503221508 12 330 14.5 29.0 0.00 0.00 0.00 30 1009.8
20260503221007 12 292 11.3 24.1 0.00 0.00 0.00 32 1009.8
20260503220507 12 287 12.9 24.1 0.00 0.00 0.00 32 1009.9
20260503220008 12 318 9.7 30.6 0.00 0.00 0.00 32 1009.9
20260503215507 12 345 12.9 30.6 0.00 0.00 0.00 30 1009.9